Regional Weather Roundup
Issued by NWS Wakefield, VA

Home | Current Version | Previous Version | Graphics & Text | Print | Product List | Glossary On
Versions: 1 2 3 4 5 6 7 8 9 10 11 12 13 14 15 16 17 18 19 20 21 22 23 24 25 26 27
000
ASUS41 KAKQ 291115
RWRAKQ

REGIONAL WEATHER ROUNDUP
NATIONAL WEATHER SERVICE WAKEFIELD VA
700 AM EDT WED MAR 29 2017

Note: "fair" indicates few or no clouds below 12,000 feet with no
significant weather and/or obstructions to visibility. * = Denotes
station may not report precipitation (e.g., rain,snow,etc.),
thunder or fog.

VAZ042-051-052>054-056-291200-
NORTHERN VIRGINIA

CITY           SKY/WX    TMP DP  RH WIND       PRES   REMARKS
WASH NATIONAL  CLOUDY    57  48  72 N12       30.06R
DULLES         MOCLDY    55  49  80 N10       30.06R
FORT BELVOIR   CLOUDY    57  50  77 N5        30.05R
QUANTICO       CLOUDY    59  54  83 NE12      30.05R
FREDERICKSBRG* CLOUDY    60  53  78 N7        30.04R
STAFFORD*      CLOUDY    58  52  80 N12G17    30.08R
WARRENTON      CLOUDY    58  46  66 NW10      30.05R
CULPEPER*      MOCLDY    57  48  71 N13G18    30.07R
MANASSAS*      CLOUDY   N/A N/A N/A N9        30.06R
LEESBURG*      CLOUDY    55  52  88 NE7       30.08R
WINCHESTER     CLOUDY    52  43  71 NW10      30.08R
FRONT ROYAL*   CLOUDY    52  45  76 CALM      30.08R
LURAY*         CLOUDY    55  46  71 N8        30.07R
$$

VAZ048-049-060>072-079>083-291200-
CENTRAL AND SOUTH CENTRAL VIRGINIA

CITY           SKY/WX    TMP DP  RH WIND       PRES   REMARKS
RICHMOND       CLOUDY    59  56  89 N3        30.03R
CHESTERFIELD*  CLOUDY    57  41  54 N6        30.05R
PETERSBURG*    MOCLDY    53  52  95 CALM      30.04R
HANOVER        CLOUDY    59  53  80 VRB3      30.05R
TAPPAHANNOCK*  CLOUDY    57  57 100 CALM      30.04R
QUINTON*       CLOUDY    57  56  95 NE5       30.02R
CHARLOTTSVILLE CLOUDY    56  52  86 CALM      30.04R
GORDONSVILLE*  MOSUNNY   50  50  98 NE5       30.05R
ORANGE*        CLOUDY    55  50  82 N6        30.06R
LOUISA*        CLEAR     57  54  88 NE3       30.04R
BUMPASS*       FAIR      56  52  88 N3        30.04R
FARMVILLE*     CLOUDY    55  55 100 CALM      30.03R FOG
CREWE*         PTSUNNY   52  52 100 CALM      30.03R
FORT PICKETT*  FAIR     N/A N/A N/A N3        30.03R
CHASE CITY*    FAIR      55  54  94 NE3       30.03R
CLARKSVILLE*   FAIR      54  54 100 N3        30.03R
SOUTH HILL*    CLEAR     54  54 100 N5        30.08R
LAWRENCEVILLE* FAIR      56  54  94 MISG      30.02R
EMPORIA*       CLOUDY    55  54  94 N3        30.04R
$$

VAZ088>098-291200-
SOUTHEAST VIRGINIA

CITY           SKY/WX    TMP DP  RH WIND       PRES   REMARKS
NORFOLK        CLEAR     54  51  90 N8        30.01R
VIRGINIA BEACH MOCLDY    52  49  89 NE5       30.01R FOG
NORFOLK NAVAL  PTCLDY    53  50  89 N10       30.04R FOG
WEST POINT*    CLOUDY    56  55  95 CALM      30.05R
SALUDA*        CLOUDY    55  53  94 CALM      30.03R
NEWPORT NEWS   MOCLDY    55  52  89 NE6       30.03R
LANGLEY AFB    MOCLDY    55  54  96 NE7       30.02R
FORT EUSTIS    DRIZZLE   56  52  86 VRB6      30.00R
WILLIAMSBURG*  CLOUDY    57  55  94 CALM      30.04R
HR EXEC AP*    FAIR      54  48  82 NE7       30.01R
FRANKLIN*      PTCLDY    54  52  92 NE5       30.03R
US460-WAKEFLD  MOCLDY    56  54  93 CALM      30.02R
$$

VAZ020-022-025-037-045-291200-
WEST CENTRAL AND SOUTHWEST VIRGINIA

CITY           SKY/WX    TMP DP  RH WIND       PRES   REMARKS
STAUNTON*      PTCLDY    48  45  89 NE8       30.08R
WAYNESBORO*    SUNNY     51  49  93 N8        30.06R
HOT SPRINGS VA MOCLDY    45  43  93 NW10G17   30.08R
LYNCHBURG      CLEAR     50  47  89 CALM      30.05R
DANVILLE       CLEAR     49  49 100 E3        30.04R
SOUTH BOSTON*  FAIR      48  47  95 CALM      30.04R
MARTINSVILLE   CLEAR     51  48  87 N3        30.07R
ROANOKE        PTCLDY    55  47  74 N7        30.07R
BLACKSBURG     MOCLDY    53  49  86 W3        30.10R
DUBLIN*        MOCLDY    55  48  79 N7        30.09R
MARION*        MOCLDY    52  51  95 CALM      30.11R
HILLSVILLE*    MOCLDY    50  49  96 CALM      30.07R
RICHLANDS*     CLOUDY    51  50  97 NE5       30.08S
WISE*          FOG       52  52 100 NE7       30.09S VSB 1/2
ABINGDON*      CLEAR     47  47  98 E3        30.07S
$$

MDZ021>025-VAZ099-100-291200-
SOUTHERN MARYLAND AND THE DELMARVA PENINSULA

CITY           SKY/WX    TMP DP  RH WIND       PRES   REMARKS
PATUXENT RIVER CLOUDY    54  48  80 N13       30.03R
BAY BRIDGE APT CLOUDY    52  43  71 N12G18    30.06R
LEONARDTOWN    CLOUDY    54  45  71 N6        30.06R
DOVER          CLEAR     48  48 100 N12       30.02R
GEORGETOWN     MOCLDY    52  46  80 N8        30.03R
EASTON         MOCLDY    54  41  62 N16G23    30.08R
CAMBRIDGE      CLOUDY    55  45  67 N10G23    30.04R
SALISBURY      CLOUDY    52  48  86 N9        30.02R
OCEAN CITY     MOCLDY    49  46  90 N7        30.01R
WALLOPS ISLAND PTCLDY    50  49  96 N5        30.02R
ACCOMACK*      CLOUDY    54  47  76 N5        30.02R
$$

NCZ012>017-030>032-291200-
NORTH CENTRAL AND EASTERN NORTH CAROLINA

CITY           SKY/WX    TMP DP  RH WIND       PRES   REMARKS
ROANOKE RAPIDS PTSUNNY   55  55 100 CALM      30.02R
RALEIGH        PTCLDY    57  50  77 NE3       30.02R
ELIZABETH CITY CLOUDY    57  53  86 N17       30.00R
AHOSKIE*         N/A     55  54  99 N6        30.02R
EDENTON*       CLEAR     56  54  91 CALM      30.01R
CURRITUCK*     CLOUDY    55  55 100 NE10G20   30.02R FOG
KILL DEVIL HLS NOT AVBL
MANTEO         CLOUDY    51  51 100 NE15      30.00R FOG
CAPE HATTERAS  MOCLDY    59  55  87 VRB7G22   29.97R FOG
TARBORO*       NOT AVBL
GOLDSBORO      CLEAR     57  57 100 N5        29.98R
WASHINGTON     CLEAR     55  55  99 NE6       30.00R
GREENVILLE     CLEAR     52  52 100 CALM      30.02R FOG
NEW BERN       CLEAR     56  56 100 CALM      29.98R FOG
WILMINGTON     MOCLDY    60  58  92 N3        29.97R
$$

VAZ048-291200-
ELSEWHERE

CITY           SKY/WX    TMP DP  RH WIND       PRES   REMARKS
HARRISBURG PA  MOCLDY    44  36  73 CALM      30.10R
BALTIMORE      MOCLDY    52  43  71 NE6       30.06R
ANNAPOLIS      CLOUDY    54  45  71 N10       30.05R
ANDREWS AFB    CLOUDY    55  47  74 N10       30.04R
PHILADELPHIA   MOCLDY    47  39  74 N13       30.04R
HENDERSON NC   CLEAR     53  50  90 N3        30.04R
GREENSBORO     PTCLDY    55  51  86 NE6       30.02R
ROCKY MOUNT    CLEAR     54  54 100 N7        30.01R
$$

VAZ100-291200-
MARINE

STATION/POSITION TIME  TEMP    WIND        PRES    WAVE   SWELL
                       AIR SEA DIR/SP/G            HT/PER HT/PER
                 (UTC) (F)     (DEG/KT/KT) (MB)    (FT/S) (FT/S)
CAPE MAY NJ      1048   48 45  350/  9/ 12 1016.1R
LEWES DE         1048   48 46  350/  9/ 12 1016.5R
WACHAPREAGUE VA  1048   53 57   10/  6/  8 1016.1R
THOMAS POINT MD  1100   51 47   20/ 16/ 17   N/A
GOOSES REEF MD   1100   51 48   60/ 14/ 16 1017.8    1/ 2
COVE POINT MD    1048   52      30/ 15/ 18 1017.6R
SOLOMONS ISLAND  1048   55 48   10/ 13/ 16   N/A
BISHOPS HEAD MD  1048   54 54   10/  6/  9 1017.1R
PINEY POINT MD   1048           40/ 11/ 12   N/A
POTOMAC MD       1100   53 47   30/  8/ 10 1016.0    0
CAMBRIDGE MD     1048   54 49   10/ 16/ 19 1016.4R
LEWISETTA VA     1048   54 53   40/  2/  4 1016.5R
RAPPAHANNOCK LGT 1048           10/ 13/ 14 1017.1R
STINGRAY PT      1050   51      30/  6/  8 1016.4R
YORK RVR RNG VA  1048   55      20/ 11/ 12 1015.9R
YORKTOWN VA      1048   56 52   20/  6/  7 1016.3R
JAMESTOWN VA     1100   58 56   30/  8/ 14   N/A     0
DOMINION TERM VA 1048   56      50/  5/  8 1016.5R
KIPTOPEKE VA     1048      51   30/  7/ 12   N/A
CHES BAY BRIDGE  1048   52 50   10/ 11/ 12 1016.2R
CAPE HENRY VA    1048   52      20/  6/  7   N/A
WILLOUBY STN VA  1048   55      20/ 14/ 15 1017.4R
S CRANEY ISL VA  1048   55      30/ 11/ 14 1016.1R
CAPE HENRY BUOY  1042      50                N/A     3/10   2/11
CAPE CHARLES BUO 1051      47                N/A     3/ 9   2/11
OFFSHORE WE BUOY 1051      51                N/A     4/10   2/11
64NM E OF VA BCH 1050   47 48   10/ 19/ 23 1014.6R   4/10   3/10
DUCK PIER NC     1048   50 48   20/ 15/ 17 1015.1R
44100 DUCK FRF   1035      52                N/A     4/ 9   2/11
44056 DUCK FRF   1030      50                N/A     3/ 9   2/11
OREGON INLET NC  1042   50 58   20/ 13/ 18 1014.9R
HATTERAS NC      1048   59 63   20/ 12/ 15 1014.1R
DIAMOND SHLS NC  1050   63 74   20/ 14/ 16 1013.8R   4/ 9   3/ 9
CAPE LOOKOUT NC  1000   64     330/  5/  5 1013.6R
$$




USA.gov is the U.S. government's official web portal to all federal, state and local government web resources and services.